KUG295 OKKK-OMDB

Flight info

Callsign KUG295
Flight time N/A
Altitude 37000
Route BOXIK B416 IMDOX DCT LONOS DCT GEPUT DCT OBNAX DCT KOBOK DCT BOTOB DCT UKUBU DCT NALPO DCT SOKAK DCT KIVUS DCT PUSOT P559 AMBOV Q322 DATOB
Aircraft B739/M-SDE2E3FGHIRWXY/LB1

Departure

Time 2026-05-04 20:16
Airport Kuwait International Airport (OKKK)

Arrival

Time N/A
Airport Dubai International Airport (OMDB)
Time Latitude Longitude Altitude Speed Heading
2026-05-04 20:03 29.23623 47.96772 164 ft 0 kts 336°
2026-05-04 20:13 29.23624 47.96771 164 ft 0 kts 336°
2026-05-04 20:13 29.23628 47.96766 164 ft 3 kts 308°
2026-05-04 20:14 29.23609 47.96717 163 ft 11 kts 221°
2026-05-04 20:14 29.23600 47.96630 162 ft 18 kts 335°
2026-05-04 20:14 29.23740 47.96562 163 ft 28 kts 338°
2026-05-04 20:14 29.23957 47.96457 163 ft 34 kts 336°
2026-05-04 20:15 29.24071 47.96399 163 ft 11 kts 336°
2026-05-04 20:15 29.24138 47.96365 163 ft 11 kts 335°
2026-05-04 20:15 29.24153 47.96269 161 ft 22 kts 246°
2026-05-04 20:15 29.23960 47.96200 159 ft 45 kts 159°
2026-05-04 20:16 29.23457 47.96472 162 ft 114 kts 154°
2026-05-04 20:16 29.22560 47.96959 176 ft 168 kts 154°
2026-05-04 20:16 29.21436 47.97602 561 ft 189 kts 152°
2026-05-04 20:16 29.20226 47.98346 1129 ft 201 kts 140°
2026-05-04 20:17 29.19402 47.99724 1433 ft 228 kts 111°
2026-05-04 20:17 29.18863 48.01412 2081 ft 229 kts 113°
2026-05-04 20:17 29.18186 48.03141 2249 ft 252 kts 116°
2026-05-04 20:17 29.17400 48.04975 2817 ft 258 kts 117°
2026-05-04 20:18 29.16581 48.06823 3493 ft 264 kts 117°
2026-05-04 20:18 29.15735 48.08707 4158 ft 268 kts 117°
2026-05-04 20:18 29.15094 48.10709 4835 ft 273 kts 96°
2026-05-04 20:18 29.15056 48.12903 5491 ft 278 kts 90°
2026-05-04 20:19 29.15075 48.15138 6134 ft 284 kts 90°
2026-05-04 20:19 29.15092 48.17414 6738 ft 290 kts 90°
2026-05-04 20:19 29.15105 48.19734 7367 ft 295 kts 90°
2026-05-04 20:19 29.15114 48.22086 7687 ft 294 kts 90°
2026-05-04 20:20 29.15118 48.24446 7761 ft 300 kts 90°
2026-05-04 20:20 29.15121 48.26835 7760 ft 300 kts 90°
2026-05-04 20:20 29.15123 48.29210 7761 ft 298 kts 90°
2026-05-04 20:20 29.15124 48.31542 7762 ft 296 kts 90°
2026-05-04 20:21 29.14865 48.33855 7743 ft 293 kts 114°
2026-05-04 20:21 29.13803 48.35818 8024 ft 290 kts 131°
2026-05-04 20:21 29.11081 48.39403 9248 ft 302 kts 134°
2026-05-04 20:22 29.09693 48.41185 9884 ft 307 kts 134°
2026-05-04 20:22 29.08238 48.43056 10172 ft 326 kts 134°
2026-05-04 20:22 29.06685 48.45059 10326 ft 347 kts 134°
2026-05-04 20:22 29.05041 48.47191 10476 ft 367 kts 134°
2026-05-04 20:23 29.03330 48.49421 10785 ft 378 kts 134°
2026-05-04 20:23 29.01589 48.51698 11290 ft 383 kts 134°
2026-05-04 20:23 28.99826 48.54003 11852 ft 386 kts 134°
2026-05-04 20:23 28.98049 48.56327 12413 ft 390 kts 134°
2026-05-04 20:24 28.96259 48.58665 12976 ft 394 kts 135°
2026-05-04 20:24 28.94445 48.61032 13527 ft 398 kts 135°
2026-05-04 20:24 28.92615 48.63417 14026 ft 401 kts 135°
2026-05-04 20:24 28.90770 48.65821 14560 ft 404 kts 135°
2026-05-04 20:25 28.88910 48.68243 15028 ft 408 kts 134°
2026-05-04 20:25 28.87027 48.70692 15534 ft 411 kts 134°
2026-05-04 20:25 28.85138 48.73149 16048 ft 414 kts 134°
2026-05-04 20:25 28.83231 48.75628 16544 ft 417 kts 134°
2026-05-04 20:26 28.81960 48.77280 16873 ft 419 kts 134°
2026-05-04 20:26 28.79496 48.80757 17523 ft 426 kts 124°
2026-05-04 20:26 28.78494 48.82680 17852 ft 428 kts 121°
2026-05-04 20:26 28.77070 48.85675 18300 ft 431 kts 119°
2026-05-04 20:27 28.75669 48.88703 18731 ft 433 kts 120°
2026-05-04 20:27 28.74250 48.91735 19176 ft 434 kts 120°
2026-05-04 20:27 28.72806 48.94762 19615 ft 436 kts 121°
2026-05-04 20:27 28.71336 48.97791 19998 ft 439 kts 121°
2026-05-04 20:28 28.69844 49.00832 20379 ft 441 kts 121°
2026-05-04 20:28 28.68339 49.03887 20814 ft 442 kts 122°
2026-05-04 20:28 28.66830 49.06944 21237 ft 444 kts 122°
2026-05-04 20:28 28.65315 49.10009 21646 ft 445 kts 122°
2026-05-04 20:29 28.63794 49.13088 22050 ft 447 kts 122°
2026-05-04 20:29 28.62269 49.16177 22434 ft 449 kts 122°
2026-05-04 20:29 28.60736 49.19280 22808 ft 450 kts 122°
2026-05-04 20:29 28.59014 49.22243 23139 ft 448 kts 133°
2026-05-04 20:30 28.56839 49.24751 23482 ft 443 kts 144°
2026-05-04 20:30 28.54344 49.26775 23767 ft 439 kts 155°
2026-05-04 20:30 28.51638 49.28379 24034 ft 440 kts 156°
2026-05-04 20:30 28.49041 49.30282 24278 ft 449 kts 146°
2026-05-04 20:31 28.46678 49.32558 24577 ft 452 kts 143°
2026-05-04 20:31 28.44330 49.34948 24867 ft 455 kts 142°